Location: ????????
(60.5616°N, 46.8254°E)
Time: 17:24:42
(UTC+00:00)

Cosmos 1844 Rocket - Pass Details

Date: 18 February 2020
Orbit: 823 x 846 km, 71.0° (Epoch: 31 March)

Event Time Altitude Azimuth Distance (km) Brightness Sun altitude
Rises 16:09:57 0° 262° (W) 3,377 7.3 -17.9°
Reaches altitude 10° 16:12:35 10° 271° (W) 2,449 6.4 -18.2°
Maximum altitude 16:17:45 36° 337° (NNW) 1,306 3.9 -18.8°
Enters shadow 16:22:27 12° 42° (NE) 2,300 4.7 -19.4°
